This is the latest recevied weather packets stored in our database for station/object W8BS. If no packets are shown the sender has not sent any weather packets the latest 10 day(s).
| Time | Temp. | Humidity | Pressure | Rain* | Wind** | Luminosity | Snow |
|---|---|---|---|---|---|---|---|
| 1777579980 | 8.33° C | 87% | 1012.3 hPa | 0 mm | - | 241 W/m² | - |
| 1777579675 | 8.33° C | 85% | 1012.2 hPa | 0 mm | - | 304 W/m² | - |
| 1777579374 | 8.89° C | 90% | 1012.3 hPa | 0 mm | - | 752 W/m² | - |
| 1777579070 | 8.89° C | 89% | 1012.4 hPa | 0 mm | - | 414 W/m² | - |
| 1777578765 | 8.89° C | 95% | 1012.4 hPa | 0 mm | - | 574 W/m² | - |
| 1777578464 | 7.78° C | 95% | 1012.4 hPa | 0 mm | - | 435 W/m² | - |
| 1777578160 | 7.22° C | 95% | 1012.6 hPa | 0 mm | - | 394 W/m² | - |
| 1777577856 | 7.22° C | 94% | 1012.4 hPa | 6.6 mm | - | 111 W/m² | - |
| 1777577552 | 7.22° C | 92% | 1012.3 hPa | 3.05 mm | - | 112 W/m² | - |
| 1777577249 | 7.22° C | 92% | 1012.5 hPa | 0 mm | - | 68 W/m² | - |
| 1777576945 | 7.22° C | 91% | 1012.3 hPa | 0 mm | - | 227 W/m² | - |
| 1777576641 | 7.22° C | 89% | 1012.4 hPa | 0 mm | - | 113 W/m² | - |
| 1777576336 | 7.78° C | 84% | 1012.5 hPa | 0 mm | - | 79 W/m² | - |
| 1777576033 | 8.33° C | 80% | 1012.3 hPa | 0 mm | - | 64 W/m² | - |
| 1777575729 | 8.33° C | 80% | 1012.2 hPa | 0 mm | - | 90 W/m² | - |
| 1777575425 | 8.89° C | 78% | 1012.4 hPa | 0 mm | - | 115 W/m² | - |
| 1777575121 | 8.89° C | 79% | 1012.6 hPa | 0 mm | - | 162 W/m² | - |
| 1777574816 | 8.33° C | 80% | 1012.2 hPa | 0 mm | - | 221 W/m² | - |
| 1777574515 | 8.33° C | 82% | 1012.4 hPa | 0 mm | - | 377 W/m² | - |
| 1777574210 | 7.78° C | 84% | 1012.3 hPa | 0 mm | - | 301 W/m² | - |
| 1777573905 | 7.78° C | 83% | 1012.4 hPa | 0 mm | - | 352 W/m² | - |
| 1777573605 | 7.78° C | 84% | 1012.1 hPa | 0 mm | - | 134 W/m² | - |
| 1777573302 | 7.78° C | 83% | 1012.4 hPa | 0 mm | - | 152 W/m² | - |
| 1777572998 | 7.22° C | 83% | 1012.3 hPa | 0 mm | - | 197 W/m² | - |
| 1777572694 | 7.78° C | 82% | 1012.3 hPa | 0 mm | - | 110 W/m² | - |
* Rain latest hour (hover to see other rain measurements)
** Current wind speed in m/s (hover to see current wind gust speed)